[[{"header":{"parameterUnit":"m.s-1","parameterCategory":1,"la1":30.2991,"la2":30.254,"lo1":-89.0895,"lo2":-89.0444,"dy":0.0017,"dx":0.0017,"nx":28,"ny":28,"refTime":"2025-04-29T21:00:00:Z","depth":0,"parameterNumber":2,"parameterNumberName":"U-component_of_WINDS"},"data":[0,0,0,0,0,0,0,0,0,0,0,0,0,0,0,0,0,0,0,0,0,0,0,0,0,0,0,0,0,0,0,0,0,0,0,0,0,0,0,0,0,0,0,0,0,0,0,0,0,0,0,0,0,0,0,0,0,0,-2.4246,-2.4248,0,-2.4382,-2.4384,-2.4385,-2.4419,-2.4418,-2.4417,-2.4416,-2.4556,-2.4561,-2.4565,0,0,0,0,0,0,0,0,0,0,0,0,0,-2.4017,-2.4021,-2.4246,-2.4248,-2.425,-2.4382,-2.4384,-2.4386,-2.4419,-2.4418,-2.4417,-2.4416,-2.4555,-2.456,-2.4565,0,0,0,0,0,0,0,0,0,0,0,0,0,-2.4131,-2.4022,-2.4246,-2.4282,-2.4287,-2.4382,-2.4384,-2.4386,-2.4419,-2.4418,-2.4417,-2.4415,-2.4553,-2.4559,-2.4566,-2.4635,0,0,-2.4587,-2.459,0,0,0,0,0,0,0,0,-2.4124,-2.4139,-2.4275,-2.428,-2.4285,-2.4382,-2.4354,-2.447,-2.442,-2.4369,-2.4416,-2.4415,-2.4499,-2.4511,-2.4539,-2.4641,-2.4647,-2.4588,-2.4592,-2.4595,-2.4597,0,0,0,0,0,0,0,-2.4116,-2.4134,-2.43,-2.4277,-2.4283,-2.4292,-2.4307,-2.4376,-2.444,-2.4373,-2.4376,-2.4392,-2.4502,-2.4532,-2.4542,-2.4649,-2.4587,-2.4594,-2.4598,-2.46,-2.4815,-2.4817,0,0,0,0,0,0,-2.4102,-2.4127,-2.4296,-2.4304,-2.42,-2.4297,-2.4314,-2.4352,-2.4439,-2.4451,-2.4393,-2.4393,-2.4521,-2.4534,-2.4548,-2.4633,-2.4595,-2.4601,-2.4605,-2.4814,-2.4816,-2.4817,0,0,0,0,0,0,-2.4097,-2.4117,-2.429,-2.4216,-2.4239,-2.4303,-2.4346,-2.4356,-2.4386,-2.4454,-2.4466,-2.4412,-2.4521,-2.4538,-2.4613,-2.4639,-2.4604,-2.461,-2.4812,-2.4814,-2.4817,-2.4805,0,0,0,0,0,0,-2.409,-2.4115,-2.4141,-2.4217,-2.4243,-2.4353,-2.4347,-2.4359,-2.4398,-2.4399,-2.4475,-2.4486,-2.4521,-2.4603,-2.462,-2.4647,-2.4616,-2.481,-2.4813,-2.4816,-2.4804,-2.4807,-2.481,0,0,0,0,0,-2.4082,-2.4133,-2.4142,-2.4162,-2.4277,-2.4354,-2.4369,-2.4408,-2.44,-2.4427,-2.4471,-2.4484,-2.4633,-2.461,-2.463,-2.466,-2.4808,-2.4812,-2.4816,-2.4802,-2.4807,-2.481,0,0,0,0,0,0,-2.4058,-2.4143,-2.4155,-2.4231,-2.4285,-2.436,-2.4395,-2.4411,-2.4469,-2.4468,-2.4514,-2.453,-2.4602,-2.4639,-2.4611,-2.4731,-2.4721,-2.4729,-2.4704,-2.4709,-2.4712,-2.4701,-2.4621,0,0,0,0,0,-2.4062,-2.4117,-2.4189,-2.4249,-2.4276,-2.4331,-2.4366,-2.4391,-2.4449,-2.4472,-2.4521,-2.4577,-2.4637,-2.4675,-2.4734,-2.481,-2.4827,-2.484,-2.4844,-2.4846,-2.4852,-2.4895,-2.4901,-2.4829,-2.4829,-2.4829,0,0,-2.407,-2.4124,-2.4156,-2.4246,-2.4291,-2.4347,-2.435,-2.4409,-2.4452,-2.4481,-2.4555,-2.4593,-2.4659,-2.4734,-2.477,-2.4767,-2.4876,-2.4851,-2.4852,-2.4856,-2.4899,-2.4906,-2.4912,-2.4832,-2.4832,-2.4831,0,0,-2.4114,-2.416,-2.4215,-2.426,-2.4328,-2.4365,-2.4378,-2.445,-2.4477,-2.4551,-2.4575,-2.4626,-2.4728,-2.4774,-2.481,-2.4872,-2.4887,-2.489,-2.4906,-2.4948,-2.4954,-2.4959,-2.498,-2.4988,-2.4896,-2.4896,-2.4896,0,-2.4115,-2.4201,-2.4242,-2.4301,-2.434,-2.4369,-2.4426,-2.4468,-2.4551,-2.4578,-2.4573,-2.4702,-2.4748,-2.4835,-2.485,-2.4879,-2.4896,-2.4881,-2.4949,-2.4955,-2.4961,-2.4982,-2.499,-2.4896,-2.4896,-2.4896,-2.4896,0,-2.42,-2.4259,-2.4296,-2.4375,-2.4419,-2.4476,-2.4526,-2.4565,-2.4587,-2.4624,-2.47,-2.4757,-2.4827,-2.485,-2.4872,-2.4941,-2.4937,-2.494,-2.4931,-2.4967,-2.4987,-2.4996,-2.4896,-2.4896,-2.4896,-2.4896,0,0,-2.4231,-2.4333,-2.4346,-2.4382,-2.446,-2.4506,-2.4566,-2.4635,-2.4667,-2.4725,-2.4775,-2.4861,-2.4865,-2.4907,-2.4934,-2.4971,-2.5016,-2.497,-2.4972,-2.4976,-2.5094,-2.509,-2.5099,-2.5027,-2.5028,-2.503,-2.5089,0,-2.4283,-2.4389,-2.4428,-2.4515,-2.457,-2.46,-2.4651,-2.4705,-2.4741,-2.4794,-2.4834,-2.4894,-2.4895,-2.4921,-2.4958,-2.5002,-2.504,-2.4999,-2.5074,-2.5076,-2.5055,-2.511,-2.5106,-2.5159,-2.5097,-2.5099,-2.51,0,-2.4358,-2.4416,-2.4508,-2.4579,-2.4604,-2.4649,-2.4716,-2.4766,-2.4827,-2.4852,-2.4898,-2.4924,-2.4987,-2.4975,-2.5063,-2.5034,-2.5067,-2.5094,-2.5097,-2.5104,-2.5089,-2.5118,-2.5177,-2.5184,-2.5113,-2.5112,-2.5111,0,-2.4371,-2.4472,-2.454,-2.4571,-2.4655,-2.4687,-2.4724,-2.4784,-2.4823,-2.4882,-2.4907,-2.4973,-2.5008,-2.5058,-2.5101,-2.5088,-2.5185,-2.5176,-2.5207,-2.5206,-2.5225,-2.5223,-2.5288,-2.5248,-2.5248,-2.5248,-2.5247,0,-2.4425,-2.448,-2.4547,-2.4589,-2.4652,-2.4696,-2.4758,-2.4797,-2.485,-2.49,-2.493,-2.4977,-2.5031,-2.5085,-2.5119,-2.5186,-2.5202,-2.5224,-2.5232,-2.522,-2.5218,-2.5242,-2.5239,-2.525,-2.5249,-2.5249,-2.5249,0,-2.4449,-2.4496,-2.4573,-2.4647,-2.4667,-2.471,-2.4773,-2.4815,-2.4853,-2.4917,-2.4934,-2.4994,-2.5059,-2.5107,-2.5191,-2.5214,-2.5286,-2.5295,-2.5265,-2.5269,-2.5296,-2.5293,-2.5379,-2.5392,-2.5343,-2.5344,-2.5344,0,-2.448,-2.4523,-2.4602,-2.4637,-2.4674,-2.4731,-2.4771,-2.4817,-2.4858,-2.4931,-2.4965,-2.5032,-2.5088,-2.519,-2.5241,-2.5306,-2.5316,-2.5342,-2.5326,-2.5313,-2.5316,-2.5312,-2.5317,-2.5344,-2.5344,-2.5344,-2.5345,0,-2.453,-2.4551,-2.4607,-2.4672,-2.4719,-2.4772,-2.4826,-2.4853,-2.4909,-2.4953,-2.502,-2.5063,-2.5149,-2.5215,-2.5285,-2.5324,-2.5344,-2.5349,-2.536,-2.5348,-2.5328,-2.5339,-2.527,-2.5347,-2.5347,-2.5346,-2.5346,-2.5346,-2.4558,-2.4598,-2.4659,-2.4721,-2.4766,-2.4816,-2.4859,-2.4902,-2.4959,-2.5032,-2.5056,-2.5125,-2.5186,-2.5282,-2.5321,-2.5376,-2.5375,-2.539,-2.5394,-2.5397,-2.5396,-2.532,-2.5389,-2.5389,-2.5389,-2.5389,-2.5389,0,-2.4609,-2.465,-2.4706,-2.478,-2.4829,-2.4843,-2.4904,-2.4944,-2.5004,-2.5059,-2.5113,-2.519,-2.5254,-2.5311,-2.5378,-2.5411,-2.5422,-2.5427,-2.5425,-2.5433,-2.5393,-2.5377,-2.5417,-2.5417,-2.5417,-2.5417,-2.5417,-2.5417,-2.4641,-2.4708,-2.4737,-2.4828,-2.4869,-2.4936,-2.4969,-2.5015,-2.5059,-2.5143,-2.5197,-2.5233,-2.5289,-2.5361,-2.5421,-2.5436,-2.5459,-2.5462,-2.5479,-2.544,-2.5436,-2.5433,-2.5418,-2.5467,-2.5467,-2.5515,-2.5515,-2.5516]},{"header":{"parameterUnit":"m.s-1","parameterCategory":1,"la1":30.2991,"la2":30.254,"lo1":-89.0895,"lo2":-89.0444,"dy":0.0017,"dx":0.0017,"nx":28,"ny":28,"refTime":"2025-04-29T21:00:00:Z","depth":0,"parameterNumber":3,"parameterNumberName":"V-component_of_WINDS"},"data":[0,0,0,0,0,0,0,0,0,0,0,0,0,0,0,0,0,0,0,0,0,0,0,0,0,0,0,0,0,0,0,0,0,0,0,0,0,0,0,0,0,0,0,0,0,0,0,0,0,0,0,0,0,0,0,0,0,0,3.6319,3.6319,0,3.6331,3.6331,3.6331,3.6285,3.6283,3.6282,3.6281,3.6291,3.6292,3.6294,0,0,0,0,0,0,0,0,0,0,0,0,0,3.6254,3.6256,3.6319,3.6319,3.6319,3.6331,3.6331,3.6331,3.6285,3.6283,3.6282,3.628,3.629,3.6292,3.6294,0,0,0,0,0,0,0,0,0,0,0,0,0,3.6276,3.6256,3.6319,3.6298,3.6296,3.6331,3.6331,3.6331,3.6285,3.6283,3.6281,3.6279,3.629,3.6292,3.6294,3.635,0,0,3.6301,3.6302,0,0,0,0,0,0,0,0,3.6275,3.6278,3.6301,3.6299,3.6297,3.6304,3.6312,3.6337,3.6286,3.6289,3.6281,3.6278,3.6297,3.6298,3.6305,3.635,3.6351,3.6301,3.6303,3.6304,3.6305,0,0,0,0,0,0,0,3.6273,3.6278,3.6324,3.6301,3.6299,3.6287,3.6288,3.6317,3.6304,3.6289,3.6285,3.6288,3.6295,3.6303,3.6305,3.6351,3.6301,3.6303,3.6305,3.6306,3.6442,3.6444,0,0,0,0,0,0,3.6275,3.6277,3.6323,3.6324,3.6281,3.629,3.6291,3.6304,3.6304,3.6302,3.6289,3.6285,3.63,3.6302,3.6305,3.637,3.6304,3.6306,3.6307,3.644,3.6443,3.6445,0,0,0,0,0,0,3.6274,3.628,3.6323,3.6299,3.6304,3.6293,3.6309,3.6305,3.6313,3.6304,3.6302,3.6299,3.6298,3.6302,3.6339,3.6369,3.6307,3.6309,3.6437,3.6441,3.6444,3.65,0,0,0,0,0,0,3.6272,3.6279,3.6301,3.63,3.6306,3.6357,3.631,3.6307,3.6317,3.6312,3.6313,3.6311,3.6297,3.6336,3.6341,3.6371,3.6311,3.6434,3.6439,3.6443,3.6495,3.6505,3.6513,0,0,0,0,0,3.627,3.6315,3.6302,3.6308,3.6332,3.6359,3.6362,3.6345,3.632,3.6341,3.6336,3.6311,3.6366,3.634,3.6346,3.6377,3.6432,3.6438,3.6442,3.6491,3.6503,3.6512,0,0,0,0,0,0,3.6318,3.6315,3.63,3.6347,3.6354,3.6351,3.6377,3.6358,3.6372,3.6366,3.6345,3.6345,3.6386,3.6386,3.6357,3.6431,3.6395,3.6401,3.643,3.6441,3.6449,3.6448,3.6313,0,0,0,0,0,3.6335,3.6358,3.6353,3.6395,3.6399,3.6388,3.6399,3.6386,3.6392,3.6394,3.6391,3.6398,3.6416,3.6428,3.6445,3.6496,3.6495,3.652,3.6529,3.6536,3.6541,3.6567,3.6578,3.6462,3.6461,3.6461,0,0,3.6368,3.6369,3.6385,3.6405,3.6408,3.6432,3.639,3.6417,3.6434,3.6398,3.6433,3.6432,3.6437,3.6481,3.65,3.6482,3.6574,3.6542,3.6548,3.6549,3.6574,3.6585,3.6595,3.6465,3.6464,3.6464,0,0,3.6441,3.6445,3.648,3.6485,3.6491,3.6484,3.6492,3.6493,3.6491,3.6526,3.6499,3.6519,3.6552,3.6557,3.6563,3.664,3.6618,3.6646,3.6691,3.6717,3.6726,3.6734,3.6761,3.6771,3.6652,3.6652,3.6652,0,3.6481,3.6516,3.65,3.6529,3.6538,3.6508,3.6543,3.6548,3.656,3.6567,3.6546,3.6587,3.6588,3.6633,3.6652,3.6659,3.6667,3.6645,3.6727,3.6734,3.6742,3.6767,3.6777,3.6655,3.6655,3.6654,3.6654,0,3.6565,3.659,3.6618,3.6631,3.6644,3.6675,3.6663,3.6678,3.6664,3.6659,3.6695,3.6696,3.6712,3.6722,3.6709,3.6765,3.6753,3.673,3.6693,3.6756,3.6779,3.6789,3.666,3.6659,3.6658,3.6657,0,0,3.6667,3.6672,3.6682,3.6688,3.6694,3.6712,3.6743,3.676,3.6772,3.6782,3.6806,3.6835,3.6814,3.6822,3.6809,3.6832,3.6892,3.6806,3.6806,3.6821,3.6953,3.697,3.6981,3.6878,3.688,3.6881,3.6952,0,3.6738,3.6791,3.6777,3.683,3.6852,3.6825,3.6851,3.6857,3.6854,3.6872,3.6867,3.6887,3.6858,3.6863,3.6885,3.688,3.6918,3.6875,3.6899,3.69,3.6897,3.6993,3.701,3.7077,3.6961,3.6963,3.6964,0,3.6827,3.6841,3.6896,3.6899,3.6908,3.6932,3.6946,3.6964,3.6971,3.6966,3.6976,3.6959,3.6988,3.6953,3.6993,3.6964,3.6973,3.6973,3.6975,3.6975,3.6935,3.6995,3.7099,3.7108,3.6978,3.6977,3.6976,0,3.6895,3.6927,3.6964,3.697,3.6974,3.6992,3.6995,3.6999,3.7011,3.7023,3.703,3.7046,3.7054,3.7067,3.7054,3.7029,3.7096,3.7059,3.7092,3.7093,3.7106,3.7105,3.7212,3.7115,3.7115,3.7115,3.7114,0,3.6974,3.7009,3.6995,3.7017,3.7055,3.7039,3.7077,3.7076,3.7081,3.7102,3.708,3.71,3.7083,3.7102,3.7093,3.7127,3.7131,3.7128,3.7124,3.7129,3.7129,3.7134,3.7128,3.7117,3.7117,3.7116,3.7116,0,3.7055,3.7048,3.7086,3.7088,3.7089,3.7117,3.7117,3.7138,3.7133,3.7161,3.7166,3.7158,3.718,3.7169,3.7191,3.7184,3.7228,3.7219,3.7226,3.7223,3.7257,3.7253,3.7369,3.7383,3.7278,3.7279,3.728,0,3.7106,3.7132,3.7137,3.715,3.7155,3.7176,3.7188,3.7174,3.7187,3.7197,3.7216,3.7236,3.7251,3.7286,3.7281,3.7298,3.7289,3.7328,3.7291,3.7295,3.7288,3.7286,3.7288,3.7335,3.7336,3.7337,3.7338,0,3.7196,3.7192,3.721,3.7227,3.7242,3.7254,3.7265,3.7277,3.7263,3.7279,3.7301,3.7312,3.7335,3.7355,3.7369,3.7371,3.7352,3.735,3.7358,3.7362,3.7365,3.7363,3.7245,3.7347,3.7346,3.7345,3.7345,3.7344,3.7263,3.7285,3.7292,3.7313,3.732,3.733,3.735,3.7348,3.7367,3.7384,3.7375,3.7401,3.7407,3.7425,3.7429,3.7449,3.7433,3.7445,3.7448,3.7451,3.7455,3.7363,3.7451,3.7451,3.7451,3.7451,3.7451,0,3.7351,3.7355,3.7375,3.7391,3.7407,3.739,3.7401,3.7415,3.7438,3.7446,3.7462,3.7487,3.7506,3.7504,3.7521,3.7537,3.7529,3.7542,3.754,3.7541,3.7469,3.7459,3.7548,3.7548,3.7548,3.7548,3.7548,3.7548,3.7399,3.7435,3.7431,3.7471,3.7474,3.7499,3.7507,3.7517,3.7523,3.7552,3.7569,3.7567,3.7571,3.7589,3.7605,3.7604,3.7611,3.7627,3.7623,3.7555,3.7546,3.7536,3.7527,3.7629,3.7629,3.7693,3.7693,3.7694]}]]